| time (UTC) | temp F | wind direction | speed knots | gust knots | rain 1hr in | rain 24hr in | rain mn in | humidity % | barometer mb |
| 20260508170904 | 68 | 207 | 1.7 | 4.3 | 0.00 | 0.06 | 0.01 | 39 | 1015.3 |
| 20260508160904 | 67 | 249 | 3.5 | 3.5 | 0.01 | 0.06 | 0.01 | 44 | 1016.2 |
| 20260508150855 | 65 | 276 | 2.6 | 2.6 | 0.00 | 0.07 | 0.00 | 42 | 1016.7 |
| 20260508140850 | 63 | 317 | 3.5 | 3.5 | 0.00 | 0.07 | 0.00 | 49 | 1016.7 |
| 20260508130853 | 58 | 19 | 0.0 | 0.0 | 0.00 | 0.07 | 0.00 | 70 | 1016.8 |
| 20260508120858 | 49 | 273 | 0.0 | 0.0 | 0.00 | 0.07 | 0.00 | 96 | 1016.1 |
| 20260508110904 | 43 | 254 | 0.0 | 0.0 | 0.00 | 0.07 | 0.00 | 96 | 1015.1 |
| 20260508100900 | 42 | 245 | 0.0 | 0.0 | 0.00 | 0.07 | 0.00 | 95 | 1014.5 |
| 20260508090906 | 42 | 245 | 0.9 | 0.9 | 0.00 | 0.08 | 0.00 | 95 | 1013.9 |
| 20260508080852 | 43 | 244 | 0.0 | 0.0 | 0.00 | 0.08 | 0.00 | 95 | 1013.3 |
| 20260508070856 | 44 | 244 | 0.0 | 0.0 | 0.00 | 0.08 | 0.00 | 95 | 1012.9 |
| 20260508060849 | 45 | 244 | 0.0 | 0.0 | 0.00 | 0.08 | 0.00 | 95 | 1012.5 |
| 20260508050903 | 47 | 246 | 0.0 | 0.0 | 0.00 | 0.08 | 0.00 | 95 | 1012.4 |
| 20260508040908 | 48 | 246 | 0.0 | 0.0 | 0.00 | 0.08 | 0.00 | 95 | 1012.0 |
| 20260508030858 | 49 | 246 | 0.0 | 0.0 | 0.00 | 0.08 | 0.08 | 94 | 1011.9 |
| 20260508020848 | 48 | 246 | 0.0 | 0.0 | 0.00 | 0.08 | 0.08 | 93 | 1011.4 |
| 20260508010849 | 50 | 246 | 0.9 | 0.9 | 0.00 | 0.08 | 0.08 | 92 | 1011.3 |
| 20260508000843 | 52 | 246 | 0.0 | 0.0 | 0.00 | 0.08 | 0.08 | 91 | 1010.6 |
| 20260507230858 | 54 | 248 | 1.7 | 1.7 | 0.00 | 0.08 | 0.08 | 88 | 1009.8 |
| 20260507220850 | 54 | 244 | 0.0 | 1.7 | 0.00 | 0.08 | 0.08 | 87 | 1009.8 |
| 20260507210916 | 54 | 135 | 2.6 | 2.6 | 0.05 | 0.08 | 0.08 | 89 | 1009.6 |
| 20260507200921 | 55 | 46 | 0.9 | 0.9 | 0.00 | 0.03 | 0.03 | 82 | 1010.0 |
| 20260507190846 | 56 | 49 | 2.6 | 2.6 | 0.00 | 0.04 | 0.03 | 76 | 1010.4 |
| 20260507180845 | 56 | 60 | 0.0 | 1.7 | 0.00 | 0.04 | 0.03 | 75 | 1010.5 |